Madison, SD

6:08 AM CST on November 13, 2019 (GMT -0600)
Madison Municipal

Weather History for KMDS - September, 2019

Change the Weather History Date:

Monday, September 23, 2019

  Actual Average Record
Temperature  
Mean Temperature 63 °F -  
Max Temperature 75 °F 66 °F 84 °F (2016)
Min Temperature 51 °F 41 °F 26 °F (2012)
Degree Days  
Heating Degree Days 2    
Growing Degree Days 13 (Base 50)    
Moisture  
Dew Point 52 °F    
Average Humidity 74    
Maximum Humidity 100    
Minimum Humidity 36    
Precipitation  
Precipitation 0.00 in - - ()
Sea Level Pressure  
Sea Level Pressure 29.98 in    
Wind  
Wind Speed 7 mph ()    
Max Wind Speed 10 mph    
Max Gust Speed -    
Visibility 9.7 miles    
Events      
Averages and records for this station are not official NWS values.
T = Trace of Precipitation, MM = Missing Value Source: Averaged Metar Reports

Daily Weather History Graph

Daily Weather History Graph

Search for Another Location

Airport or City:

Astronomy

Sep. 23, 2019 Rise Set
Actual Time 7:16 AM CDT 7:24 PM CDT
Civil Twilight 6:47 AM CDT 7:53 PM CDT
Nautical Twilight 6:13 AM CDT 8:26 PM CDT
Astronomical Twilight 5:39 AM CDT 9:01 PM CDT
Moon 12:47 AM CDT (9/23) 4:31 PM CDT (9/23)
Length of Visible Light 13h 05m
Length of Day
12h 07m
Waning Crescent, 33% of the Moon is Illuminated
Sep 23
Waning Crescent
Sep 28
New
Oct 5
First Quarter
Oct 13
Full
Oct 21
Last Quarter

Hourly Weather History & Observations

Time (CDT) Temp. Dew Point Humidity Pressure Visibility Wind Dir Wind Speed Gust Speed Precip Events Conditions
12:00 AM 53.6 °F 53.6 °F 100% 29.99 in 10.0 mi WSW 5.8 mph - N/A   Clear
12:15 AM 53.6 °F 53.6 °F 100% 29.99 in 10.0 mi WSW 8.1 mph - N/A   Clear
12:20 AM 53.6 °F 53.6 °F 100% 29.99 in 10.0 mi WSW 8.1 mph - N/A   Clear
12:35 AM 55.4 °F 55.4 °F 100% 29.99 in 10.0 mi West 8.1 mph - N/A   Clear
12:55 AM 55.4 °F 53.6 °F 94% 29.99 in 10.0 mi West 6.9 mph - N/A   Clear
1:15 AM 55.4 °F 53.6 °F 94% 29.99 in 10.0 mi West 6.9 mph - N/A   Clear
1:20 AM 55.4 °F 53.6 °F 94% 29.99 in 10.0 mi WSW 5.8 mph - N/A   Clear
1:35 AM 53.6 °F 53.6 °F 100% 29.99 in 10.0 mi West 6.9 mph - N/A   Clear
1:55 AM 53.6 °F 53.6 °F 100% 30.00 in 10.0 mi WSW 6.9 mph - N/A   Clear
2:00 AM 53.6 °F 53.6 °F 100% 30.00 in 10.0 mi WSW 6.9 mph - N/A   Clear
2:15 AM 53.6 °F 53.6 °F 100% 30.00 in 10.0 mi WSW 8.1 mph - N/A   Clear
2:35 AM 53.6 °F 53.6 °F 100% 30.01 in 10.0 mi WSW 6.9 mph - N/A   Clear
2:40 AM 53.6 °F 53.6 °F 100% 30.00 in 10.0 mi WSW 8.1 mph - N/A   Clear
2:55 AM 53.6 °F 53.6 °F 100% 30.00 in 10.0 mi WSW 6.9 mph - N/A   Clear
3:00 AM 53.6 °F 53.6 °F 100% 30.00 in 10.0 mi WSW 6.9 mph - N/A   Clear
3:15 AM 53.6 °F 53.6 °F 100% 30.00 in 10.0 mi WSW 8.1 mph - N/A   Clear
3:20 AM 53.6 °F 53.6 °F 100% 30.00 in 10.0 mi WSW 10.4 mph - N/A   Clear
3:35 AM 53.6 °F 53.6 °F 100% 30.00 in 10.0 mi WSW 8.1 mph - N/A   Clear
3:40 AM 53.6 °F 53.6 °F 100% 30.00 in 10.0 mi WSW 8.1 mph - N/A   Clear
3:55 AM 51.8 °F 51.8 °F 100% 30.01 in 10.0 mi WSW 6.9 mph - N/A   Clear
4:00 AM 51.8 °F 51.8 °F 100% 30.01 in 10.0 mi WSW 6.9 mph - N/A   Clear
4:15 AM 53.6 °F 53.6 °F 100% 30.01 in 10.0 mi WSW 6.9 mph - N/A   Clear
4:20 AM 53.6 °F 53.6 °F 100% 30.01 in 10.0 mi WSW 8.1 mph - N/A   Clear
4:40 AM 53.6 °F 53.6 °F 100% 30.01 in 10.0 mi WSW 8.1 mph - N/A   Clear
4:55 AM 53.6 °F 53.6 °F 100% 30.01 in 10.0 mi WSW 8.1 mph - N/A   Clear
5:15 AM 51.8 °F 51.8 °F 100% 30.01 in 10.0 mi WSW 6.9 mph - N/A   Clear
5:35 AM 51.8 °F 51.8 °F 100% 30.01 in 10.0 mi WSW 6.9 mph - N/A   Clear
5:40 AM 51.8 °F 51.8 °F 100% 30.01 in 10.0 mi WSW 8.1 mph - N/A   Clear
5:55 AM 51.8 °F 51.8 °F 100% 30.01 in 10.0 mi WSW 6.9 mph - N/A   Clear
6:00 AM 51.8 °F 51.8 °F 100% 30.01 in 10.0 mi WSW 8.1 mph - N/A   Clear
6:15 AM 51.8 °F 50.0 °F 94% 30.01 in 10.0 mi North - - N/A   Clear
6:20 AM 51.8 °F 50.0 °F 94% 30.01 in 10.0 mi North - - N/A   Clear
6:35 AM 51.8 °F 50.0 °F 94% 30.01 in 10.0 mi North - - N/A   Clear
6:40 AM 51.8 °F 50.0 °F 94% 30.01 in 10.0 mi North - - N/A   Clear
6:55 AM 51.8 °F 50.0 °F 94% 30.01 in 10.0 mi SW 6.9 mph - N/A   Clear
7:00 AM 51.8 °F 50.0 °F 94% 30.01 in 10.0 mi WSW 6.9 mph - N/A   Clear
7:15 AM 51.8 °F 50.0 °F 94% 30.01 in 10.0 mi SW 5.8 mph - N/A   Clear
7:20 AM 51.8 °F 50.0 °F 94% 30.02 in 10.0 mi SW 5.8 mph - N/A   Clear
7:35 AM 51.8 °F 48.2 °F 88% 30.02 in 10.0 mi SW 4.6 mph - N/A   Clear
7:40 AM 51.8 °F 50.0 °F 94% 30.02 in 10.0 mi SW 4.6 mph - N/A   Clear
7:55 AM 53.6 °F 50.0 °F 88% 30.02 in 10.0 mi SW 4.6 mph - N/A   Clear
8:00 AM 53.6 °F 50.0 °F 88% 30.02 in 10.0 mi SW 4.6 mph - N/A   Clear
8:15 AM 53.6 °F 51.8 °F 94% 30.02 in 10.0 mi SW 4.6 mph - N/A   Clear
8:35 AM 55.4 °F 53.6 °F 94% 30.03 in 10.0 mi SW 8.1 mph - N/A   Clear
8:40 AM 55.4 °F 55.4 °F 100% 30.03 in 10.0 mi SW 8.1 mph - N/A   Clear
8:55 AM 57.2 °F 55.4 °F 94% 30.03 in 10.0 mi SW 9.2 mph - N/A   Clear
9:15 AM 59.0 °F 55.4 °F 88% 30.04 in 10.0 mi SW 9.2 mph - N/A   Clear
9:35 AM 60.8 °F 55.4 °F 82% 30.04 in 10.0 mi SSW 9.2 mph - N/A   Clear
9:40 AM 60.8 °F 55.4 °F 82% 30.04 in 10.0 mi SW 10.4 mph - N/A   Clear
9:55 AM 62.6 °F 55.4 °F 77% 30.04 in 10.0 mi SW 9.2 mph - N/A   Clear
10:15 AM 62.6 °F 55.4 °F 77% 30.04 in 10.0 mi SW 9.2 mph - N/A   Clear
10:35 AM 64.4 °F 55.4 °F 73% 30.05 in 10.0 mi SW 9.2 mph - N/A   Clear
10:40 AM 64.4 °F 53.6 °F 68% 30.05 in 10.0 mi SW 8.1 mph - N/A   Clear
10:55 AM 64.4 °F 55.4 °F 73% 30.04 in 10.0 mi SW 8.1 mph - N/A   Clear
11:15 AM 66.2 °F 55.4 °F 68% 30.04 in 10.0 mi SSW 6.9 mph - N/A   Clear
11:35 AM 66.2 °F 55.4 °F 68% 30.04 in 10.0 mi SSW 4.6 mph - N/A   Clear
11:40 AM 66.2 °F 55.4 °F 68% 30.03 in 10.0 mi SW 5.8 mph - N/A   Clear
11:55 AM 68.0 °F 53.6 °F 60% 30.03 in 10.0 mi SW 5.8 mph - N/A   Clear
12:15 PM 68.0 °F 53.6 °F 60% 30.03 in 10.0 mi SW 6.9 mph - N/A   Clear
12:35 PM 69.8 °F 53.6 °F 56% 30.02 in 10.0 mi WSW 5.8 mph - N/A   Clear
12:40 PM 69.8 °F 50.0 °F 49% 30.02 in 10.0 mi WSW 5.8 mph - N/A   Clear
12:55 PM 71.6 °F 50.0 °F 46% 30.02 in 10.0 mi SSW 6.9 mph - N/A   Clear
1:15 PM 71.6 °F 46.4 °F 41% 30.01 in 10.0 mi WSW 6.9 mph - N/A   Clear
1:20 PM 71.6 °F 46.4 °F 41% 30.01 in 10.0 mi WSW 4.6 mph - N/A   Clear
1:35 PM 71.6 °F 44.6 °F 38% 30.00 in 10.0 mi SSW 3.5 mph - N/A   Clear
1:40 PM 71.6 °F 44.6 °F 38% 30.00 in 10.0 mi WSW 10.4 mph - N/A   Clear
1:55 PM 73.4 °F 46.4 °F 38% 30.00 in 10.0 mi SW 8.1 mph - N/A   Clear
2:00 PM 73.4 °F 44.6 °F 36% 29.99 in 10.0 mi WSW 5.8 mph - N/A   Clear
2:15 PM 73.4 °F 44.6 °F 36% 29.99 in 5.0 mi WSW 6.9 mph - N/A   Haze
2:35 PM 73.4 °F 44.6 °F 36% 29.98 in 10.0 mi SW 8.1 mph - N/A   Clear
2:40 PM 73.4 °F 44.6 °F 36% 29.98 in 10.0 mi WSW 5.8 mph - N/A   Clear
2:55 PM 73.4 °F 46.4 °F 38% 29.97 in 6.0 mi SW 9.2 mph - N/A   Haze
3:00 PM 73.4 °F 46.4 °F 38% 29.97 in 7.0 mi WSW 4.6 mph - N/A   Clear
3:15 PM 73.4 °F 46.4 °F 38% 29.97 in 5.0 mi WSW 5.8 mph - N/A   Haze
3:20 PM 73.4 °F 48.2 °F 41% 29.97 in 8.0 mi WSW 9.2 mph - N/A   Clear
3:35 PM 73.4 °F 48.2 °F 41% 29.97 in 8.0 mi SW 9.2 mph - N/A   Clear
3:40 PM 73.4 °F 46.4 °F 38% 29.97 in 5.0 mi SW 6.9 mph - N/A   Haze
3:55 PM 73.4 °F 48.2 °F 41% 29.96 in 8.0 mi SSW 9.2 mph - N/A   Clear
4:00 PM 73.4 °F 48.2 °F 41% 29.96 in 9.0 mi SSW 5.8 mph - N/A   Clear
4:15 PM 75.2 °F 48.2 °F 38% 29.96 in 10.0 mi WSW 8.1 mph - N/A   Clear
4:35 PM 75.2 °F 48.2 °F 38% 29.95 in 5.0 mi SW 6.9 mph - N/A   Haze
4:55 PM 75.2 °F 46.4 °F 36% 29.95 in 10.0 mi SW 10.4 mph - N/A   Clear
5:00 PM 75.2 °F 46.4 °F 36% 29.95 in 10.0 mi SW 8.1 mph - N/A   Clear
5:15 PM 75.2 °F 48.2 °F 38% 29.95 in 10.0 mi SW 8.1 mph - N/A   Clear
5:20 PM 75.2 °F 48.2 °F 38% 29.95 in 10.0 mi WSW 9.2 mph - N/A   Clear
5:35 PM 75.2 °F 46.4 °F 36% 29.95 in 10.0 mi SW 5.8 mph - N/A   Clear
5:40 PM 75.2 °F 48.2 °F 38% 29.95 in 10.0 mi SW 5.8 mph - N/A   Clear
5:55 PM 73.4 °F 50.0 °F 44% 29.95 in 10.0 mi South 6.9 mph - N/A   Clear
6:00 PM 73.4 °F 53.6 °F 50% 29.95 in 10.0 mi South 6.9 mph - N/A   Clear
6:15 PM 73.4 °F 53.6 °F 50% 29.94 in 10.0 mi SSW 6.9 mph - N/A   Clear
6:20 PM 71.6 °F 53.6 °F 53% 29.94 in 10.0 mi South 6.9 mph - N/A   Clear
6:35 PM 71.6 °F 55.4 °F 57% 29.94 in 10.0 mi South 5.8 mph - N/A   Clear
6:40 PM 71.6 °F 55.4 °F 57% 29.93 in 10.0 mi South 5.8 mph - N/A   Clear
6:55 PM 69.8 °F 53.6 °F 56% 29.93 in 10.0 mi North - - N/A   Clear
7:15 PM 68.0 °F 53.6 °F 60% 29.93 in 10.0 mi SSE 4.6 mph - N/A   Clear
7:20 PM 68.0 °F 53.6 °F 60% 29.93 in 10.0 mi SSE 5.8 mph - N/A   Clear
7:35 PM 66.2 °F 55.4 °F 68% 29.93 in 10.0 mi SE 4.6 mph - N/A   Clear
7:40 PM 66.2 °F 55.4 °F 68% 29.93 in 10.0 mi SSE 5.8 mph - N/A   Clear
7:55 PM 64.4 °F 57.2 °F 77% 29.93 in 10.0 mi SSE 5.8 mph - N/A   Clear
8:15 PM 64.4 °F 57.2 °F 77% 29.93 in 10.0 mi SSE 5.8 mph - N/A   Clear
8:20 PM 64.4 °F 57.2 °F 77% 29.93 in 10.0 mi SSE 4.6 mph - N/A   Clear
8:35 PM 64.4 °F 55.4 °F 73% 29.92 in 10.0 mi SSE 4.6 mph - N/A   Clear
8:40 PM 62.6 °F 57.2 °F 82% 29.92 in 10.0 mi SSE 4.6 mph - N/A   Clear
8:55 PM 62.6 °F 57.2 °F 82% 29.92 in 10.0 mi SSE 5.8 mph - N/A   Clear
9:15 PM 62.6 °F 55.4 °F 77% 29.92 in 10.0 mi SE 6.9 mph - N/A   Clear
9:35 PM 62.6 °F 55.4 °F 77% 29.92 in 10.0 mi SE 5.8 mph - N/A   Clear
9:55 PM 62.6 °F 53.6 °F 72% 29.91 in 10.0 mi SSE 5.8 mph - N/A   Clear
10:15 PM 62.6 °F 55.4 °F 77% 29.91 in 10.0 mi SSE 5.8 mph - N/A   Clear
10:20 PM 62.6 °F 55.4 °F 77% 29.91 in 10.0 mi SSE 6.9 mph - N/A   Clear
10:35 PM 62.6 °F 57.2 °F 82% 29.91 in 10.0 mi SSE 6.9 mph - N/A   Clear
10:40 PM 62.6 °F 57.2 °F 82% 29.90 in 10.0 mi SSE 5.8 mph - N/A   Clear
10:55 PM 62.6 °F 57.2 °F 82% 29.90 in 10.0 mi SE 4.6 mph - N/A   Clear
11:15 PM 62.6 °F 57.2 °F 82% 29.90 in 10.0 mi SSE 3.5 mph - N/A   Clear
11:20 PM 62.6 °F 57.2 °F 82% 29.90 in 10.0 mi SE 4.6 mph - N/A   Clear
11:35 PM 59.0 °F 57.2 °F 94% 29.90 in 10.0 mi SSE 4.6 mph - N/A   Clear
11:40 PM 59.0 °F 57.2 °F 94% 29.90 in 10.0 mi SSE 4.6 mph - N/A   Clear
11:55 PM 60.8 °F 59.0 °F 94% 29.89 in 10.0 mi SSE 4.6 mph - N/A   Clear